This demonstration page uses our WeatherBlox Daily Observations layout. Learn more.

Left ArrowRight Arrow

30.21309, -93.2044

Hourly Observations for May 10, 2015

Temp ( °F °C ) Dew Point ( °F °C ) Humidity (%) Winds ( mph kmh ) Pressure ( in mb ) Visibility ( mi km ) Precip ( " mm )
12:15 am 00:15 Cloudy 75 23.9 73 22.7 93 93 SE 10 17 29.97 1015 10 16 0.00 0.00
12:35 am 00:35 Cloudy 75 24.1 73 23 94 94 SSE 9 15 29.97 1015 10 16 0.00 0.00
12:55 am 00:55 Cloudy 76 24.3 73 23 92 92 SSE 10 17 29.97 1015 10 16 0.00 0.00
1:15 am 01:15 Cloudy 76 24.2 73 22.9 92 92 SSE 12 19 29.97 1015 10 16 0.00 0.00
1:35 am 01:35 Cloudy 76 24.2 73 23 93 93 SSE 12 19 29.97 1015 10 16 0.00 0.00
1:55 am 01:55 Cloudy 76 24.2 73 23 93 93 SSE 10 17 29.94 1014 10 16 0.00 0.00
2:15 am 02:15 Cloudy 75 24.1 73 23 94 94 SSE 9 15 29.94 1014 7 11 0.00 0.00
2:35 am 02:35 Cloudy 76 24.2 73 23 93 93 SSE 8 13 29.94 1014 10 16 0.00 0.00
2:55 am 02:55 Cloudy 75 24 73 23 94 94 SSE 9 15 29.94 1014 7 11 0.00 0.00
3:15 am 03:15 Cloudy 75 24.1 73 22.9 93 93 SSE 9 15 29.94 1014 7 11 0.00 0.00
3:35 am 03:35 Cloudy 75 24 73 22.7 92 92 SE 9 15 29.94 1014 7 11 0.00 0.00
3:55 am 03:55 Mostly Cloudy 75 24 73 22.7 92 92 SE 10 17 29.94 1014 7 11 0.00 0.00
4:15 am 04:15 Mostly Cloudy 75 24 73 22.6 92 92 SE 9 15 29.94 1014 10 16 0.00 0.00
4:35 am 04:35 Cloudy 75 24 73 22.7 92 92 SE 5 7 29.97 1015 7 11 0.00 0.00
4:55 am 04:55 Cloudy 75 24 73 22.8 93 93 SSE 5 7 29.97 1015 7 11 0.00 0.00
5:15 am 05:15 Cloudy 75 23.8 73 22.7 94 94 SE 6 9 29.97 1015 7 11 0.00 0.00
6:00 am 06:00 Mostly Cloudy 75 24 73 23 94 94 SE 7 11 29.97 1015 7 11 0.00 0.00
6:50 am 06:50 Partly Cloudy 73 23 72 22 94 94 ESE 7 11 29.97 1015 7 11 0.00 0.00
7:50 am 07:50 Partly Cloudy 75 24 73 23 94 94 ESE 7 11 29.97 1015 7 11 0.00 0.00
8:50 am 08:50 Mostly Cloudy 81 27 73 23 79 79 SE 15 24 29.97 1015 10 16 0.00 0.00
9:50 am 09:50 Mostly Cloudy 82 28 72 22 70 70 SSE 20 31 30.00 1016 10 16 0.00 0.00
10:50 am 10:50 Mostly Cloudy 82 28 72 22 70 70 SSE 20 31 30.00 1016 10 16 0.00 0.00
11:50 am 11:50 Partly Cloudy 82 28 72 22 70 70 SSE 16 26 30.00 1016 10 16 0.00 0.00
12:50 pm 12:50 Partly Cloudy 86 30 72 22 62 62 SE 20 31 29.97 1015 10 16 0.00 0.00
1:50 pm 13:50 Mostly Cloudy 86 30 72 22 62 62 SE 17 28 29.97 1015 10 16 0.00 0.00
9:50 pm 21:50 Mostly Cloudy 79 26 73 23 84 84 SSE 15 24 29.97 1015 10 16 0.00 0.00
10:15 pm 22:15 Cloudy 78 25.4 73 23 87 87 SSE 13 20 29.97 1015 10 16 0.00 0.00
10:35 pm 22:35 Cloudy 77 25.2 73 23 88 88 SE 14 22 29.97 1015 10 16 0.00 0.00
10:55 pm 22:55 Mostly Cloudy 77 25 73 23 89 89 SSE 13 20 29.97 1015 10 16 0.00 0.00
11:15 pm 23:15 Cloudy 77 25.1 73 23 88 88 SSE 10 17 29.97 1015 10 16 0.00 0.00
11:35 pm 23:35 Cloudy 77 25 74 23.1 89 89 SE 12 19 29.97 1015 10 16 0.00 0.00
11:55 pm 23:55 Cloudy 77 25 74 23.1 89 89 SSE 9 15 29.97 1015 10 16 0.00 0.00

Powered by AerisWeather